Regional Weather Roundup
Issued by NWS Sterling, VA

Home | Current Version | Previous Version | Text Only | Print | Product List | Glossary Off
Versions: 1 2 3 4 5 6 7 8 9 10 11 12 13 14 15 16 17 18 19 20 21 22 23 24 25 26 27 28

000
ASUS41 KLWX 230810
RWRLWX

REGIONAL WEATHER ROUNDUP
NATIONAL WEATHER SERVICE BALTIMORE MD/WASHINGTON DC
400 AM EDT SAT JUL 23 2016

Note: "FAIR" indicates few or no clouds below 12,000 feet
with no significant weather and/or obstructions to visibility.
 TC=TEMPERATURE CELSIUS

 * =Non NWS site. Station does not report precipitation (e.g. rain,
    snow, etc.), thunder, or fog.

DCZ001-MDZ009-015-VAZ040>042-051-053>054-230900-
WASHINGTON METRO

CITY           SKY/WX    TMP DP  RH WIND       PRES   REMARKS
WASHINGTON NAT FAIR      81  74  79 S5        29.93S
DULLES         FAIR      73  70  90 CALM      29.94S
ANDREWS AFB    CLEAR     78  71  79 W5        29.93R
FT BELVOIR     FAIR      72  70  94 SE2       29.93S
QUANTICO       FAIR      78  72  81 NW8       29.93F
COLLEGE PARK*  FAIR      73  70  88 CALM      29.93R
LEESBURG*      FAIR      79  73  83 CALM      29.95S
MANASSAS*      FAIR      72  72 100 CALM      29.94F
GAITHERSBURG*  CLEAR     73  68  83 CALM      29.98S

$$

MDZ006>007-011-014-230900-
BALTIMORE METRO

CITY           SKY/WX    TMP DP  RH WIND       PRES   REMARKS
BWI AIRPORT    CLEAR     77  71  82 W6        29.92R
MD SCIENCE CTR   N/A     82  70  66 MISG      29.91S
MARTIN STATE   CLEAR     81  72  74 W3        29.92S
ANNAPOLIS      CLEAR     80  73  79 CALM      29.91S
FORT MEADE*    CLEAR     72  70  94 CALM      29.95S

$$

MDZ012-015-019>023-230900-
MARYLAND EASTERN SHORE

CITY           SKY/WX    TMP DP  RH WIND       PRES   REMARKS
OCEAN CITY     CLEAR     78  76  93 W7        29.91S
SALISBURY      CLEAR     78  76  93 W5        29.92S
BAY BRIDGE AP* CLEAR     81  75  83 W6        29.91S
CAMBRIDGE*     CLEAR     73  72  94 CALM      29.92R
EASTON*        CLEAR     81  76  84 NW3       29.95S

$$

MDZ017>025-230900-
SOUTHERN MARYLAND

CITY           SKY/WX    TMP DP  RH WIND       PRES   REMARKS
PATUXENT RIVER CLEAR     79  72  79 W9        29.92S
ST INIGOES     CLEAR     81  75  82 W3        29.92S
LEONARDTOWN*   CLEAR     75  70  83 W3        29.94F

$$

MDZ003>005-230900-
NORTH CENTRAL MARYLAND

CITY           SKY/WX    TMP DP  RH WIND       PRES   REMARKS
FREDERICK*     CLEAR     77  72  83 SE3       29.96S
HAGERSTOWN APT CLEAR     80  70  71 SW6       29.95S

$$

MDZ501>502-230900-
WESTERN MARYLAND

CITY           SKY/WX    TMP DP  RH WIND       PRES   REMARKS
OAKLAND*       CLEAR     64  64 100 W8        30.12S FOG
CUMBERLAND*    CLEAR     79  68  69 W7        30.03R

$$

VAZ025>031-230900-
SHENANDOAH VALLEY

CITY           SKY/WX    TMP DP  RH WIND       PRES   REMARKS
WINCHESTER*    FAIR      77  68  73 SW6       29.97S
FRONT ROYAL*   FAIR      73  70  88 SW7       29.96F
LURAY*         FAIR      72  72 100 CALM      29.99F
NEW MARKET*    FAIR     N/A N/A N/A SW3       29.99S
STAUNTON*      FAIR      66  66  97 CALM      30.04S
WAYNESBORO*    FAIR      67  65  94 CALM      30.03F

$$

WVZ021-048>050-054>055-230900-
EASTERN WEST VIRGINIA PANHANDLE

CITY           SKY/WX    TMP DP  RH WIND       PRES   REMARKS
MARTINSBURG    FAIR      79  68  69 SW3       29.96R
PETERSBURG*    FAIR      68  68  99 CALM      30.01R FOG

$$

VAZ036>039-050-230900-
CENTRAL FOOTHILLS

CITY           SKY/WX    TMP DP  RH WIND       PRES   REMARKS
CHARLOTTESVILL FAIR      74  69  85 CALM      29.96F
CULPEPER*      FAIR      71  71 100 CALM      29.95F FOG
ORANGE*          N/A     73  73 100 CALM      29.96F
GORDONSVILLE*  FAIR      70  70  99 CALM      29.95S
WARRENTON*     FOG       71  67  86 CALM      29.94F VSB 1/2

$$

VAZ055>057-230900-
NORTH AND CENTRAL PIEDMONT

CITY           SKY/WX    TMP DP  RH WIND       PRES   REMARKS
FREDERICKSBRG* FAIR      74  74 100 CALM      29.93S
STAFFORD*      FAIR      71  68  91 CALM      29.97F

$$

NCZ024-NYZ072-PAZ021-071-VAZ022-071-230900-
OTHER REGIONAL OBSERVATIONS

CITY           SKY/WX    TMP DP  RH WIND       PRES   REMARKS
NEW YORK CITY  CLEAR     82  64  54 NW6       29.86R
PHILADELPHIA   CLEAR     80  70  71 W9        29.87S
PITTSBURGH     MOCLDY    73  66  78 W5        30.01S
ROANOKE        FAIR      74  67  78 NW3       30.04F
RICHMOND       FAIR      75  73  93 S5        29.95S
RALEIGH        PTCLDY    74  70  87 SW6       29.99F

$$

ANZ530>537-230900-
MARINE OBSERVATIONS

STATION/POSITION TIME  TEMP    WIND        PRES
                       AIR SEA DIR/SP/G
                 (UTC) (F)     (DEG/KT/KT) (MB)
THOMAS PT LIGHT  0800   81 81  290/ 10/ 11 1014.3R
BALT KEY BRIDGE  0748   81     260/  7/  8 1012.7R
COVE POINT       0748   80     280/  9/ 13 1013.6R
LEWISETTA        0748   80 85  250/  8/  9 1013.0R
SOLOMONS ISLAND  0748   80 83  290/  2/  4   N/A
PINEY POINT      0748          320/ 10/ 12   N/A

$$





USA.gov is the U.S. government's official web portal to all federal, state and local government web resources and services.